Oakland, MD

8:04 PM EDT on March 30, 2017 (GMT -0400)
terra alta wv 26764 | | Change Station

Elev 2333 ft 39.45 °N, 79.55 °W | Updated 14 seconds ago

Partly Cloudy
Partly Cloudy
48.9 °F
Feels Like 49 °F
N
1.0
Wind Variable Wind from West

Today
High -- | Low -- °F
--% Chance of Precip.
Yesterday
High -- | Low -- °F
Precip. -- in
Pressure 29.87 in
Visibility 10.0 miles
Clouds Clear
Windchill 49 °F
Dew Point 42 °F
Humidity 76%
Rainfall 0.00 in
Snow Depth Not available.
7:04 AM 7:39 PM
Waxing Crescent, 11% visible
METAR K2G4 302340Z AUTO 13015G21KT 10SM CLR 06/02 A2987 RMK AO1
Pressure 29.87 in
Visibility 10.0 miles
Clouds Clear
Windchill 49 °F
Dew Point 42 °F
Humidity 76%
Rainfall 0.00 in
Snow Depth Not available.
7:04 AM 7:39 PM
Waxing Crescent, 11% visible
METAR K2G4 302340Z AUTO 13015G21KT 10SM CLR 06/02 A2987 RMK AO1

Get Severe Weather Alerts

Thanks for signing up!

Be on the lookout for a verification email in your inbox.

You'll start receiving the daily forecast at 8 AM.

×

10-Day Weather Forecast

Almanac

Astronomy

Mar. 30, 2017 Rise Set
Actual Time
Civil Twilight
Nautical Twilight
Astronomical Twilight
Moon
Length of Visible Light
Length of Day
Tomorrow will be .
, % of the Moon is Illuminated

Today's Extremes

State Highs State Lows

Community

WunderPhotos

Upload Photos

1,962,540 photos uploaded!

WunderBlog® & News

Nearby

Air Quality

  Air Quality AQ Index Pollutant
Not available.

Snow Depth

Station Depth Elevation

Earthquake Activity

City Distance Mag. Time & Date
Minimum magnitude displayed is 2.5.

Earthquake Activity

City Distance Mag. Time & Date
Minimum magnitude displayed is 2.5.

Coastal Water Temperatures

Place Temperature

Stations

Nearby Weather Stations

Station Location Temp. Windchill Dew Point Humidity Wind Precip. Elev Updated Type
                   

Watches & Warnings

There are currently no watches in effect.